ハーゲンローザー彗星

175P/Hergenrother (2000)

English version
Home page
Updated on February 25, 2006

---------------------------------------------------------------------

・ プロフィール

符号 175P/2000 C1
発見日 2000年2月4日
発見光度 17.1等
発見者 Carl Hergenrother (Lunar and Planetary Laboratory)

・ 写真集

・ 軌道要素

   The following improved orbital elements by Kenji Muraoka, are
  from 163 observations  2000 Jan. 4  to  May  8, perturbations
  by 9 Planets, Moon and 5 minor planets were taken into account.
   The mean residual is +/- 0.73 arc seconds.

      Epoch  =  2000 Apr.  6.0  TT       JDT = 2451640.5
          T  =  2000 Mar. 19.86858       +/- 0.01097 (m.e.) TT
       Peri. =   51.16722                +/- 0.01188
       Node  =  127.04430                +/- 0.00986   (2000.0)
       Incl. =    6.10536                +/- 0.00166
          q  =    2.0955452              +/- 0.0000479 AU
          e  =    0.4064290              +/- 0.0000068
          a  =    3.5304035              +/- 0.0000699 AU
          n  =    0.14858246             +/- 0.00000441
          P  =    6.633                  +/- 0.0001969  years
                                        (+/- 0.07 day)

・ 星図

・ 光度変化

        m1 = 13.0 + 5 logΔ + 10.0 log r

---------------------------------------------------------------------

軌道要素は村岡健治氏の計算によるものです。
星図は StellaNavigator Ver.2.0 for Windows (アストロアーツ 編著 / アスキー出版局刊) で作成したものです。
光度グラフはComet for Windowsで作成したものです。

---------------------------------------------------------------------

Copyright(C) Seiichi Yoshida (comet@aerith.net). All rights reserved.